Location: Buenos Aires
(34.6076°S, 58.4371°W)
Time: 13:04:05
(UTC-03:00)

Envisat - Pass Details

Date: 02 July 2021
Orbit: 764 x 766 km, 98.2° (Epoch: 03 August)

Event Time Altitude Azimuth Distance (km) Brightness Sun altitude
Rises 05:41:07 0° 7° (N) 3,216 6.4 -28.1°
Reaches altitude 10° 05:43:25 10° 4° (N) 2,299 5.6 -27.6°
Enters shadow 05:46:44 41° 349° (NNW) 1,113 3.7 -27.0°
